Weather History for Covington, KY

Change the Weather History Date:

Tuesday, December 4, 2012

  Actual Average Record
Temperature  
Mean Temperature 52 °F 38 °F  
Max Temperature 64 °F 45 °F 72 °F (1998)
Min Temperature 40 °F 30 °F 10 °F (1991)
Degree Days  
Heating Degree Days 13 28  
Month to date heating degree days 33 108  
Since 1 July heating degree days 1139 1068  
Cooling Degree Days 0 0  
Month to date cooling degree days 0 0  
Year to date cooling degree days 1439 1121  
Growing Degree Days 4 (Base 50)    
Moisture  
Dew Point 51 °F    
Average Humidity 84    
Maximum Humidity 100    
Minimum Humidity 67    
Precipitation  
Precipitation 0.33 in 0.12 in 2.36 in (1880)
Month to date precipitation 1.00 0.44  
Year to date precipitation 34.03 39.59  
Snow  
Snow 0.00 in 0.10 in 3.50 in (1898)
Month to date snowfall 0.0 0.4  
Since 1 July snowfall T 1.2  
Snow Depth 0.00 in    
Sea Level Pressure  
Sea Level Pressure 30.08 in    
Wind  
Wind Speed 10 mph (SW)    
Max Wind Speed 23 mph    
Max Gust Speed 28 mph    
Visibility 8 miles    
Events Rain    
T = Trace of Precipitation, MM = Missing Value Source: NWS Daily Summary

Daily Weather History Graph

Daily Weather History Graph

Search for Another Location

Airport:

Trip Planner

Search our weather history database for the weather conditions in past years. The results will help you decide how hot, cold, wet, or windy it might be!

Date:

Astronomy

Dec. 04, 2012 Rise Set
Actual Time 7:42 AM EST 5:16 PM EST
Civil Twilight 7:12 AM EST 5:45 PM EST
Nautical Twilight 6:39 AM EST 6:19 PM EST
Astronomical Twilight 6:06 AM EST 6:51 PM EST
Moon 11:00 PM EST (12/4) 11:37 AM EST (12/4)
Length of Visible Light 10h 33m
Length of Day
9h 34m
Waning Gibbous, 69% of the Moon is Illuminated
Dec 4
Waning Gibbous
Dec 6
Last Quarter
Dec 13
New
Dec 20
First Quarter
Dec 28
Full

Hourly Weather History & Observations

Time (EST) Temp. Windchill Dew Point Humidity Pressure Visibility Wind Dir Wind Speed Gust Speed Precip Events Conditions
12:52 AM 60.1 °F - 50.0 °F 69% 30.08 in 10.0 mi South 11.5 mph - N/A   Mostly Cloudy
1:52 AM 59.0 °F - 50.0 °F 72% 30.08 in 10.0 mi South 11.5 mph - N/A   Mostly Cloudy
2:52 AM 57.0 °F - 48.9 °F 74% 30.08 in 10.0 mi South 6.9 mph - N/A   Overcast
3:52 AM 57.9 °F - 48.9 °F 72% 30.07 in 10.0 mi South 8.1 mph - N/A   Overcast
4:52 AM 59.0 °F - 48.9 °F 69% 30.06 in 10.0 mi South 9.2 mph - N/A   Overcast
5:52 AM 57.9 °F - 48.9 °F 72% 30.06 in 10.0 mi South 9.2 mph - N/A   Overcast
6:52 AM 59.0 °F - 48.9 °F 69% 30.06 in 10.0 mi South 6.9 mph - N/A   Overcast
7:52 AM 59.0 °F - 50.0 °F 72% 30.07 in 10.0 mi South 10.4 mph - N/A   Overcast
8:52 AM 60.1 °F - 52.0 °F 75% 30.07 in 10.0 mi SSW 9.2 mph - N/A   Mostly Cloudy
9:52 AM 62.1 °F - 55.0 °F 78% 30.08 in 10.0 mi SSW 9.2 mph - N/A   Overcast
10:52 AM 63.0 °F - 55.9 °F 78% 30.07 in 10.0 mi SSW 11.5 mph 24.2 mph N/A   Mostly Cloudy
11:11 AM 62.6 °F - 55.4 °F 77% 30.08 in 10.0 mi SSW 16.1 mph 25.3 mph N/A   Overcast
11:52 AM 63.0 °F - 57.0 °F 81% 30.05 in 10.0 mi SSW 17.3 mph 24.2 mph N/A   Overcast
12:52 PM 63.0 °F - 57.0 °F 81% 30.03 in 10.0 mi SSW 15.0 mph 23.0 mph N/A   Overcast
1:52 PM 64.0 °F - 57.9 °F 80% 30.01 in 10.0 mi SW 11.5 mph 18.4 mph N/A   Overcast
2:52 PM 63.0 °F - 57.9 °F 84% 30.01 in 9.0 mi SSW 9.2 mph 18.4 mph N/A   Overcast
3:21 PM 62.6 °F - 59.0 °F 88% 30.02 in 6.0 mi SSW 9.2 mph - 0.00 in Rain Light Rain
3:29 PM 60.8 °F - 59.0 °F 94% 30.02 in 2.5 mi SSW 9.2 mph - 0.00 in Rain Light Rain
3:52 PM 61.0 °F - 59.0 °F 93% 30.01 in 2.0 mi Variable 6.9 mph - 0.05 in Rain Rain
4:02 PM 60.8 °F - 59.0 °F 94% 30.03 in 2.5 mi SSW 8.1 mph - 0.09 in Rain Rain
4:15 PM 60.8 °F - 59.0 °F 94% 30.03 in 3.0 mi SW 5.8 mph - 0.11 in Rain Light Rain
4:42 PM 60.8 °F - 60.8 °F 100% 30.04 in 2.0 mi West 8.1 mph - 0.14 in Rain Rain
4:52 PM 54.0 °F - 53.1 °F 97% 30.04 in 2.0 mi NNW 20.7 mph 27.6 mph 0.21 in Rain Rain
4:59 PM 53.6 °F - 51.8 °F 94% 30.06 in 6.0 mi NNW 18.4 mph - 0.01 in Rain Light Rain
5:43 PM 50.0 °F - 46.4 °F 87% 30.11 in 9.0 mi NNW 17.3 mph - 0.04 in Rain Light Rain
5:52 PM 48.9 °F - 46.9 °F 93% 30.11 in 9.0 mi NNW 19.6 mph - 0.04 in Rain Light Rain
6:52 PM 46.9 °F - 45.0 °F 93% 30.15 in 8.0 mi NNW 9.2 mph - 0.02 in Rain Light Rain
7:05 PM 46.4 °F 42.9 °F 44.6 °F 93% 30.16 in 10.0 mi NNW 6.9 mph - 0.01 in Rain Light Rain
7:52 PM 46.9 °F - 43.0 °F 86% 30.17 in 10.0 mi North 5.8 mph - 0.01 in   Overcast
8:52 PM 46.9 °F - 43.0 °F 86% 30.18 in 10.0 mi Calm Calm - N/A   Overcast
9:52 PM 45.0 °F 41.8 °F 43.0 °F 93% 30.20 in 10.0 mi WNW 5.8 mph - N/A   Overcast
10:52 PM 44.1 °F 42.5 °F 41.0 °F 89% 30.20 in 10.0 mi West 3.5 mph - N/A   Mostly Cloudy
11:52 PM 43.0 °F 41.3 °F 41.0 °F 93% 30.21 in 10.0 mi WSW 3.5 mph - N/A   Mostly Cloudy